CW9600 Weather Reports


time (UTC)temp
C
wind
direction
speed
KPH
gust
KPH
rain 1hr
cm
rain 24hr
cm
rain mn
cm
humidity
%
barometer
mb
20260506070345 6 349 14.5 20.9 0.00 0.00 0.00 89
20260506070245 6 350 14.5 20.9 0.00 0.00 0.00 89
20260506070146 6 350 14.5 20.9 0.00 0.00 0.00 88
20260506070107 6 351 14.5 20.9 0.00 0.00 0.00 88
20260506062445 5 341 11.3 17.7 0.00 0.00 0.00 94
20260506062406 5 340 11.3 16.1 0.00 0.00 0.00 94
20260506062307 5 339 11.3 16.1 0.00 0.00 0.00 94
20260506062145 5 338 11.3 16.1 0.00 0.00 0.00 94
20260506062045 5 338 11.3 17.7 0.00 0.00 0.00 94
20260506061946 4 338 11.3 17.7 0.00 0.00 0.00 94
20260506061845 4 338 11.3 17.7 0.00 0.00 0.00 94
20260506061745 4 339 11.3 17.7 0.00 0.00 0.00 93
20260506061645 4 340 11.3 17.7 0.00 0.00 0.00 93
20260506061545 4 340 11.3 17.7 0.00 0.00 0.00 94
20260506061446 4 340 11.3 17.7 0.00 0.00 0.00 94
20260506061345 4 341 11.3 17.7 0.00 0.00 0.00 94
20260506061245 4 341 11.3 17.7 0.00 0.00 0.00 94
20260506061145 4 341 11.3 17.7 0.00 0.00 0.00 94
20260506061045 4 341 11.3 16.1 0.00 0.00 0.00 94
20260506060945 3 341 11.3 16.1 0.00 0.00 0.00 94
20260506060845 3 341 11.3 16.1 0.00 0.00 0.00 94
20260506060745 3 340 11.3 16.1 0.00 0.00 0.00 94
20260506060646 3 340 11.3 16.1 0.00 0.00 0.00 94
20260506060545 3 339 11.3 16.1 0.00 0.00 0.00 93
20260506060445 3 339 11.3 16.1 0.00 0.00 0.00 93
20260506060346 3 339 11.3 16.1 0.00 0.00 0.00 93
20260506060306 3 339 11.3 16.1 0.00 0.00 0.00 93
20260506060145 3 339 11.3 16.1 0.00 0.00 0.00 93
20260506060106 3 338 11.3 16.1 0.00 0.00 0.00 93
20260506051345 3 322 11.3 14.5 0.00 0.00 0.00 93
20260506051245 3 322 11.3 14.5 0.00 0.00 0.00 93
20260506051145 3 322 11.3 14.5 0.00 0.00 0.00 93
20260506051045 3 323 11.3 14.5 0.00 0.00 0.00 93
20260506050945 3 323 11.3 14.5 0.00 0.00 0.00 93
20260506050845 3 322 11.3 14.5 0.00 0.00 0.00 93
20260506050745 3 322 11.3 14.5 0.00 0.00 0.00 93
20260506050706 3 321 11.3 14.5 0.00 0.00 0.00 93
20260506050545 3 321 11.3 14.5 0.00 0.00 0.00 93
20260506050445 3 320 11.3 14.5 0.00 0.00 0.00 93
20260506050346 3 319 11.3 14.5 0.00 0.00 0.00 93
20260506050245 3 319 11.3 14.5 0.00 0.00 0.00 93
20260506050145 3 318 11.3 14.5 0.00 0.00 0.00 93
20260506050107 3 318 11.3 14.5 0.00 0.00 0.00 93
20260506045045 3 320 11.3 16.1 0.00 0.00 0.00 93
20260506044945 3 319 11.3 16.1 0.00 0.00 0.00 93
20260506044845 3 319 11.3 16.1 0.00 0.00 0.00 93
20260506044806 3 318 11.3 16.1 0.00 0.00 0.00 93
20260506044645 3 317 11.3 16.1 0.00 0.00 0.00 93
20260506044547 3 316 11.3 16.1 0.00 0.00 0.00 93
20260506044445 3 315 11.3 16.1 0.00 0.00 0.00 93
20260506044346 3 314 11.3 14.5 0.00 0.00 0.00 93
20260506044245 3 314 11.3 14.5 0.00 0.00 0.00 93
20260506044145 3 314 11.3 14.5 0.00 0.00 0.00 93
20260506044106 3 315 11.3 14.5 0.00 0.00 0.00 93
20260506043945 3 316 12.9 16.1 0.00 0.00 0.00 93
20260506043845 3 318 12.9 17.7 0.00 0.00 0.00 93
20260506043745 3 319 12.9 17.7 0.00 0.00 0.00 93
20260506043646 3 320 12.9 17.7 0.00 0.00 0.00 93
20260506043545 3 322 12.9 17.7 0.00 0.00 0.00 93
20260506043506 3 322 12.9 17.7 0.00 0.00 0.00 93
20260506043406 3 323 12.9 17.7 0.00 0.00 0.00 93
20260506043245 3 325 12.9 17.7 0.00 0.00 0.00 93
20260506043207 3 326 12.9 17.7 0.00 0.00 0.00 93
20260506043045 3 328 11.3 17.7 0.00 0.00 0.00 93
20260506042945 3 330 11.3 17.7 0.00 0.00 0.00 93
20260506042845 3 331 11.3 16.1 0.00 0.00 0.00 93
20260506042745 3 333 11.3 16.1 0.00 0.00 0.00 93
20260506042645 3 336 11.3 16.1 0.00 0.00 0.00 93
20260506042545 3 337 11.3 16.1 0.00 0.00 0.00 93
20260506042445 3 340 11.3 16.1 0.00 0.00 0.00 93
20260506042406 3 341 11.3 16.1 0.00 0.00 0.00 93
20260506042245 3 343 11.3 16.1 0.00 0.00 0.00 93
20260506042206 3 344 11.3 16.1 0.00 0.00 0.00 93
20260506042045 3 345 11.3 16.1 0.00 0.00 0.00 93
20260506041945 3 346 11.3 16.1 0.00 0.00 0.00 93
20260506041846 3 346 12.9 16.1 0.00 0.00 0.00 93
20260506041745 3 347 12.9 16.1 0.00 0.00 0.00 93
20260506041706 3 347 12.9 16.1 0.00 0.00 0.00 93
20260506041545 3 347 12.9 17.7 0.00 0.00 0.00 93
20260506041447 3 347 12.9 17.7 0.00 0.00 0.00 93
20260506041345 3 347 12.9 17.7 0.00 0.00 0.00 93
20260506041245 3 346 12.9 17.7 0.00 0.00 0.00 93
20260506041145 3 347 12.9 17.7 0.00 0.00 0.00 93
20260506041045 3 347 12.9 17.7 0.00 0.00 0.00 93
20260506040945 3 347 12.9 17.7 0.00 0.00 0.00 93
20260506040845 3 347 12.9 17.7 0.00 0.00 0.00 93
20260506040746 3 347 12.9 17.7 0.00 0.00 0.00 93
20260506040645 3 347 12.9 17.7 0.00 0.00 0.00 93
20260506040545 3 346 12.9 16.1 0.00 0.00 0.00 93
20260506040445 3 346 12.9 16.1 0.00 0.00 0.00 93
20260506040406 3 346 12.9 16.1 0.00 0.00 0.00 93
20260506040245 3 346 12.9 16.1 0.00 0.00 0.00 93
20260506040145 3 345 12.9 19.3 0.00 0.00 0.00 93
20260506040046 3 344 12.9 19.3 0.00 0.00 0.00 93
20260506035946 3 344 12.9 19.3 0.00 0.00 0.00 93
20260506035845 3 344 12.9 19.3 0.00 0.00 0.00 93
20260506035745 3 344 12.9 19.3 0.00 0.00 0.00 93
20260506035706 3 344 12.9 19.3 0.00 0.00 0.00 93
20260506035545 3 344 12.9 19.3 0.00 0.00 0.00 93
20260506035445 3 343 14.5 19.3 0.00 0.00 0.00 93
20260506035345 3 343 14.5 19.3 0.00 0.00 0.00 93
20260506035245 3 343 14.5 19.3 0.00 0.00 0.00 93
20260506035145 3 342 14.5 17.7 0.00 0.00 0.00 93
20260506035045 3 342 14.5 17.7 0.00 0.00 0.00 93
20260506034945 3 341 14.5 17.7 0.00 0.00 0.00 93
20260506034846 3 340 14.5 17.7 0.00 0.00 0.00 93
20260506034745 3 339 14.5 17.7 0.00 0.00 0.00 93
20260506034707 3 339 14.5 17.7 0.00 0.00 0.00 93
20260506034545 3 339 14.5 17.7 0.00 0.00 0.00 93
20260506034507 3 338 14.5 17.7 0.00 0.00 0.00 93
20260506034345 3 337 14.5 17.7 0.00 0.00 0.00 93
20260506034307 3 337 14.5 17.7 0.00 0.00 0.00 93
20260506034206 3 336 12.9 17.7 0.00 0.00 0.00 93
20260506034045 3 336 12.9 16.1 0.00 0.00 0.00 93
20260506033945 3 336 12.9 16.1 0.00 0.00 0.00 93
20260506033906 3 336 12.9 16.1 0.00 0.00 0.00 93
20260506033745 3 335 12.9 16.1 0.00 0.00 0.00 93
20260506033645 3 335 12.9 16.1 0.00 0.00 0.00 93
20260506033545 3 334 12.9 16.1 0.00 0.00 0.00 93
20260506033507 3 334 11.3 16.1 0.00 0.00 0.00 93
20260506033345 3 334 11.3 16.1 0.00 0.00 0.00 93
20260506033246 3 335 11.3 14.5 0.00 0.00 0.00 93
20260506033145 3 335 11.3 14.5 0.00 0.00 0.00 93
20260506033045 3 335 11.3 14.5 0.00 0.00 0.00 93
20260506033006 3 335 11.3 14.5 0.00 0.00 0.00 93
20260506032847 3 335 11.3 14.5 0.00 0.00 0.00 93
20260506032745 3 335 9.7 12.9 0.00 0.00 0.00 93
20260506032646 3 336 9.7 12.9 0.00 0.00 0.00 93
20260506032607 3 336 9.7 12.9 0.00 0.00 0.00 93
20260506032446 3 336 9.7 14.5 0.00 0.00 0.00 93
20260506032345 3 336 9.7 14.5 0.00 0.00 0.00 93
20260506032246 3 336 9.7 14.5 0.00 0.00 0.00 93
20260506032146 3 336 11.3 14.5 0.00 0.00 0.00 93
20260506032107 3 336 11.3 14.5 0.00 0.00 0.00 93
20260506031945 3 336 11.3 14.5 0.00 0.00 0.00 93
20260506031845 3 336 11.3 14.5 0.00 0.00 0.00 93
20260506031746 3 336 11.3 14.5 0.00 0.00 0.00 93
20260506031646 3 336 11.3 14.5 0.00 0.00 0.00 93
20260506031545 3 336 11.3 14.5 0.00 0.00 0.00 93
20260506031445 3 336 11.3 14.5 0.00 0.00 0.00 93
20260506031345 3 337 11.3 16.1 0.00 0.00 0.00 93
20260506031245 3 337 11.3 16.1 0.00 0.00 0.00 93
20260506031145 3 337 11.3 16.1 0.00 0.00 0.00 93
20260506031045 3 338 11.3 16.1 0.00 0.00 0.00 93
20260506030945 3 339 11.3 16.1 0.00 0.00 0.00 93
20260506030845 3 339 12.9 16.1 0.00 0.00 0.00 93
20260506030746 3 339 12.9 16.1 0.00 0.00 0.00 93
20260506030645 3 339 12.9 16.1 0.00 0.00 0.00 93
20260506030545 3 340 12.9 16.1 0.00 0.00 0.00 93
20260506030446 3 340 12.9 16.1 0.00 0.00 0.00 93
20260506030345 3 339 12.9 16.1 0.00 0.00 0.00 93
20260506030245 3 339 12.9 16.1 0.00 0.00 0.00 93
20260506030146 3 339 12.9 16.1 0.00 0.00 0.00 93
20260506030047 3 339 12.9 16.1 0.00 0.00 0.00 93
20260506025946 3 339 12.9 16.1 0.00 0.00 0.00 93
20260506025907 3 339 12.9 16.1 0.00 0.00 0.00 93
20260506025807 3 339 12.9 16.1 0.00 0.00 0.00 93
20260506025707 3 339 12.9 16.1 0.00 0.00 0.00 93
20260506025545 3 339 12.9 16.1 0.00 0.00 0.00 93
20260506025445 3 338 12.9 16.1 0.00 0.00 0.00 93
20260506025345 3 338 12.9 16.1 0.00 0.00 0.00 93
20260506025245 3 338 12.9 16.1 0.00 0.00 0.00 93
20260506025145 3 337 12.9 16.1 0.00 0.00 0.00 93
20260506025046 3 336 12.9 16.1 0.00 0.00 0.00 93
20260506024945 3 336 12.9 16.1 0.00 0.00 0.00 93
20260506024845 3 335 12.9 16.1 0.00 0.00 0.00 93
20260506024747 3 335 12.9 16.1 0.00 0.00 0.00 93
20260506024708 3 334 12.9 16.1 0.00 0.00 0.00 93
20260506024545 3 334 12.9 14.5 0.00 0.00 0.00 93
20260506024445 3 334 12.9 14.5 0.00 0.00 0.00 93
20260506024345 3 334 11.3 14.5 0.00 0.00 0.00 93
20260506024245 3 334 12.9 14.5 0.00 0.00 0.00 93
20260506024146 3 334 12.9 14.5 0.00 0.00 0.00 93
20260506024045 3 334 11.3 14.5 0.00 0.00 0.00 93
20260506023945 3 334 11.3 14.5 0.00 0.00 0.00 93
20260506023845 3 334 11.3 14.5 0.00 0.00 0.00 93
20260506023745 3 334 11.3 14.5 0.00 0.00 0.00 93
20260506023645 3 334 11.3 14.5 0.00 0.00 0.00 93
20260506023606 3 333 11.3 14.5 0.00 0.00 0.00 93
20260506023446 2 333 11.3 14.5 0.00 0.00 0.00 93
20260506023345 3 334 11.3 14.5 0.00 0.00 0.00 93
20260506023308 2 334 11.3 14.5 0.00 0.00 0.00 93
20260506023147 2 334 11.3 14.5 0.00 0.00 0.00 93
20260506023045 2 334 11.3 14.5 0.00 0.00 0.00 93
20260506022945 2 334 11.3 14.5 0.00 0.00 0.00 93
20260506022907 2 334 11.3 14.5 0.00 0.00 0.00 93
20260506022746 2 334 11.3 14.5 0.00 0.00 0.00 93
20260506022645 3 334 11.3 14.5 0.00 0.00 0.00 93
20260506022546 3 334 11.3 14.5 0.00 0.00 0.00 93
20260506022445 3 334 11.3 14.5 0.00 0.00 0.00 93
20260506022345 3 334 11.3 14.5 0.00 0.00 0.00 93
20260506022245 3 333 11.3 14.5 0.00 0.00 0.00 93
20260506022145 3 333 11.3 14.5 0.00 0.00 0.00 93
20260506022045 3 333 11.3 14.5 0.00 0.00 0.00 93
20260506022006 3 333 11.3 14.5 0.00 0.00 0.00 93
20260506021845 3 333 11.3 14.5 0.00 0.00 0.00 92
20260506021745 3 332 11.3 14.5 0.00 0.00 0.00 92
20260506021645 3 332 11.3 14.5 0.00 0.00 0.00 92
20260506021545 3 332 11.3 14.5 0.00 0.00 0.00 92
20260506021446 3 332 11.3 14.5 0.00 0.00 0.00 93
20260506021345 3 332 11.3 14.5 0.00 0.00 0.00 92
20260506021245 3 332 11.3 14.5 0.00 0.00 0.00 92
20260506021145 3 332 11.3 14.5 0.00 0.00 0.00 92
20260506021046 3 332 11.3 14.5 0.00 0.00 0.00 92
20260506021007 3 332 11.3 14.5 0.00 0.00 0.00 92
20260506020845 3 332 11.3 14.5 0.00 0.00 0.00 92
20260506020746 3 332 11.3 14.5 0.00 0.00 0.00 92
20260506020707 3 332 11.3 14.5 0.00 0.00 0.00 92
20260506020545 3 332 11.3 14.5 0.00 0.00 0.00 92
20260506020447 3 332 11.3 14.5 0.00 0.00 0.00 92
20260506020345 3 332 11.3 14.5 0.00 0.00 0.00 92
20260506020245 3 332 11.3 14.5 0.00 0.00 0.00 92
20260506020145 3 332 11.3 14.5 0.00 0.00 0.00 92
20260506020045 3 332 11.3 14.5 0.00 0.00 0.00 92
20260506015945 3 332 11.3 14.5 0.00 0.00 0.00 92
20260506015845 3 333 11.3 14.5 0.00 0.00 0.00 92
20260506015746 3 333 11.3 12.9 0.00 0.00 0.00 92
20260506015706 3 333 11.3 12.9 0.00 0.00 0.00 92
20260506015545 3 333 11.3 12.9 0.00 0.00 0.00 92
20260506015445 3 333 11.3 12.9 0.00 0.00 0.00 92
20260506015345 3 334 11.3 14.5 0.00 0.00 0.00 92
20260506015245 3 334 11.3 14.5 0.00 0.00 0.00 92
20260506015145 3 335 11.3 14.5 0.00 0.00 0.00 92
20260506015047 3 335 11.3 14.5 0.00 0.00 0.00 92
20260506014945 3 335 11.3 14.5 0.00 0.00 0.00 92
20260506014845 3 336 11.3 14.5 0.00 0.00 0.00 92
20260506014745 3 336 11.3 14.5 0.00 0.00 0.00 92
20260506014645 3 336 11.3 14.5 0.00 0.00 0.00 92
20260506014606 3 337 11.3 14.5 0.00 0.00 0.00 92
20260506014445 3 337 11.3 14.5 0.00 0.00 0.00 92
20260506014346 3 337 11.3 14.5 0.00 0.00 0.00 92
20260506014247 3 338 11.3 14.5 0.00 0.00 0.00 92
20260506014146 3 338 11.3 14.5 0.00 0.00 0.00 92
20260506014045 3 338 11.3 14.5 0.00 0.00 0.00 92
20260506013945 3 338 11.3 16.1 0.00 0.00 0.00 92
20260506013845 3 338 11.3 16.1 0.00 0.00 0.00 92
20260506013745 3 338 11.3 16.1 0.00 0.00 0.00 92
20260506013707 3 338 11.3 16.1 0.00 0.00 0.00 92
20260506013606 3 337 11.3 16.1 0.00 0.00 0.00 92
20260506013446 3 336 11.3 16.1 0.00 0.00 0.00 92
20260506013345 3 336 11.3 16.1 0.00 0.00 0.00 92
20260506013245 3 336 11.3 16.1 0.00 0.00 0.00 92
20260506013145 3 335 11.3 16.1 0.00 0.00 0.00 92
20260506013045 3 334 12.9 16.1 0.00 0.00 0.00 92
20260506012945 3 334 11.3 16.1 0.00 0.00 0.00 92
20260506012906 3 334 11.3 16.1 0.00 0.00 0.00 92
20260506012745 3 334 11.3 14.5 0.00 0.00 0.00 92
20260506012646 3 333 11.3 14.5 0.00 0.00 0.00 92
20260506012545 3 333 11.3 17.7 0.00 0.00 0.00 92
20260506012445 3 332 11.3 17.7 0.00 0.00 0.00 92
20260506012345 3 332 12.9 17.7 0.00 0.00 0.00 92
20260506012245 3 332 12.9 17.7 0.00 0.00 0.00 92
20260506012206 3 332 12.9 17.7 0.00 0.00 0.00 92
20260506012045 3 332 11.3 17.7 0.00 0.00 0.00 92
20260506011945 3 331 11.3 17.7 0.00 0.00 0.00 92
20260506011845 3 331 12.9 17.7 0.00 0.00 0.00 92
20260506011745 3 330 12.9 17.7 0.00 0.00 0.00 92
20260506011645 3 330 12.9 17.7 0.00 0.00 0.00 92
20260506011546 3 330 12.9 16.1 0.00 0.00 0.00 92
20260506011446 3 330 12.9 16.1 0.00 0.00 0.00 92
20260506011345 3 330 12.9 16.1 0.00 0.00 0.00 92
20260506011245 3 330 12.9 16.1 0.00 0.00 0.00 92
20260506011145 3 330 12.9 16.1 0.00 0.00 0.00 92
20260506011045 3 330 12.9 16.1 0.00 0.00 0.00 92
20260506010946 3 330 12.9 16.1 0.00 0.00 0.00 92
20260506010845 3 331 12.9 16.1 0.00 0.00 0.00 92
20260506010745 3 331 12.9 16.1 0.00 0.00 0.00 92
20260506010645 3 330 12.9 16.1 0.00 0.00 0.00 92
20260506010545 3 330 12.9 16.1 0.00 0.00 0.00 92
20260506010445 3 330 12.9 16.1 0.00 0.00 0.00 92
20260506010345 3 330 12.9 16.1 0.00 0.00 0.00 92
20260506010245 3 330 12.9 16.1 0.00 0.00 0.00 92
20260506010145 3 330 12.9 16.1 0.00 0.00 0.00 92
20260506010045 3 330 12.9 16.1 0.00 0.00 0.00 92
20260506005946 3 329 12.9 16.1 0.00 0.00 0.00 92
20260506005845 3 328 12.9 16.1 0.00 0.00 0.00 92
20260506005745 3 328 12.9 16.1 0.00 0.00 0.00 92
20260506005645 3 327 12.9 16.1 0.00 0.00 0.00 92
20260506005546 3 326 11.3 14.5 0.00 0.00 0.00 91
20260506005446 3 325 11.3 14.5 0.00 0.00 0.00 91
20260506005345 3 324 11.3 14.5 0.00 0.00 0.00 91
20260506005306 3 324 11.3 14.5 0.00 0.00 0.00 91
20260506005145 3 323 11.3 14.5 0.00 0.00 0.00 91
20260506005106 3 323 11.3 14.5 0.00 0.00 0.00 91
20260506005007 3 323 11.3 14.5 0.00 0.00 0.00 91
20260506004906 3 324 11.3 14.5 0.00 0.00 0.00 91
20260506004745 3 324 11.3 14.5 0.00 0.00 0.00 91
20260506004706 3 325 11.3 14.5 0.00 0.00 0.00 91
20260506004606 3 325 11.3 14.5 0.00 0.00 0.00 91
20260506004446 3 327 11.3 14.5 0.00 0.00 0.00 91
20260506004406 3 327 11.3 14.5 0.00 0.00 0.00 91
20260506004245 3 327 11.3 14.5 0.00 0.00 0.00 91
20260506004206 3 327 11.3 14.5 0.00 0.00 0.00 91
20260506004045 3 326 11.3 14.5 0.00 0.00 0.00 91
20260506003945 3 326 11.3 14.5 0.00 0.00 0.00 91
20260506003846 3 325 11.3 14.5 0.00 0.00 0.00 91
20260506003745 3 325 11.3 14.5 0.00 0.00 0.00 91
20260506003645 3 324 11.3 14.5 0.00 0.00 0.00 91
20260506003545 3 324 11.3 14.5 0.00 0.00 0.00 91
20260506003445 3 324 11.3 14.5 0.00 0.00 0.00 91
20260506003406 3 324 11.3 14.5 0.00 0.00 0.00 91
20260506003245 3 324 11.3 14.5 0.00 0.00 0.00 91
20260506003207 3 324 11.3 14.5 0.00 0.00 0.00 91
20260506003107 3 324 11.3 14.5 0.00 0.00 0.00 91
20260506002946 3 324 11.3 14.5 0.00 0.00 0.00 91
20260506002845 3 324 11.3 14.5 0.00 0.00 0.00 91
20260506002745 3 325 11.3 14.5 0.00 0.00 0.00 91
20260506002645 3 324 11.3 14.5 0.00 0.00 0.00 91
20260506002545 4 324 11.3 14.5 0.00 0.00 0.00 91
20260506002446 3 324 11.3 14.5 0.00 0.00 0.00 91
20260506002345 3 324 11.3 14.5 0.00 0.00 0.00 91
20260506002245 4 324 11.3 14.5 0.00 0.00 0.00 91
20260506002146 4 325 11.3 14.5 0.00 0.00 0.00 91
20260506002045 4 325 11.3 14.5 0.00 0.00 0.00 91
20260506001945 4 326 11.3 14.5 0.00 0.00 0.00 91
20260506001845 4 326 11.3 14.5 0.00 0.00 0.00 90
20260506001745 4 327 11.3 14.5 0.00 0.00 0.00 91
20260506001706 4 328 11.3 14.5 0.00 0.00 0.00 91
20260506001607 4 328 11.3 16.1 0.00 0.00 0.00 90
20260506001446 4 329 11.3 16.1 0.00 0.00 0.00 90
20260506001345 4 330 11.3 16.1 0.00 0.00 0.00 90
20260506001245 4 330 11.3 16.1 0.00 0.00 0.00 90
20260506001145 4 330 11.3 16.1 0.00 0.00 0.00 90
20260506001106 4 331 11.3 16.1 0.00 0.00 0.00 90
20260506000946 4 331 11.3 16.1 0.00 0.00 0.00 90
20260506000845 4 331 11.3 16.1 0.00 0.00 0.00 90
20260506000745 4 332 11.3 16.1 0.00 0.00 0.00 90
20260506000646 4 332 11.3 14.5 0.00 0.00 0.00 90
20260506000546 4 333 11.3 14.5 0.00 0.00 0.00 90
20260506000445 4 334 11.3 14.5 0.00 0.00 0.00 90
20260506000346 4 334 11.3 14.5 0.00 0.00 0.00 90
20260506000247 4 335 11.3 14.5 0.00 0.00 0.00 90
20260506000145 4 336 11.3 14.5 0.00 0.00 0.00 90
20260506000045 4 336 11.3 14.5 0.00 0.00 0.00 90
20260505235945 4 337 11.3 14.5 0.00 0.00 0.00 90
20260505235845 4 338 11.3 14.5 0.00 0.00 0.00 90
20260505235806 4 338 11.3 14.5 0.00 0.00 0.00 90
20260505235706 4 339 11.3 14.5 0.00 0.00 0.00 90
20260505235546 4 340 11.3 14.5 0.00 0.00 0.00 90
20260505235446 4 340 11.3 14.5 0.00 0.00 0.00 90
20260505235345 4 341 11.3 14.5 0.00 0.00 0.00 90
20260505235246 4 340 11.3 14.5 0.00 0.00 0.00 90
20260505235146 4 341 11.3 14.5 0.00 0.00 0.00 90
20260505235046 4 341 11.3 14.5 0.00 0.00 0.00 90
20260505234945 4 341 11.3 14.5 0.00 0.00 0.00 90
20260505234907 4 341 11.3 14.5 0.00 0.00 0.00 90
20260505234745 4 340 11.3 14.5 0.00 0.00 0.00 90
20260505234645 4 340 11.3 14.5 0.00 0.00 0.00 89
20260505234545 4 340 11.3 14.5 0.00 0.00 0.00 89
20260505234445 4 339 11.3 14.5 0.00 0.00 0.00 89
20260505234406 5 339 11.3 14.5 0.00 0.00 0.00 89
20260505234245 5 339 11.3 14.5 0.00 0.00 0.00 89
20260505234145 5 339 11.3 12.9 0.00 0.00 0.00 90
20260505234045 5 338 11.3 14.5 0.00 0.00 0.00 89
20260505234006 5 338 11.3 14.5 0.00 0.00 0.00 89
20260505233845 5 338 11.3 14.5 0.00 0.00 0.00 89
20260505233747 5 338 11.3 14.5 0.00 0.00 0.00 89
20260505233646 5 338 11.3 14.5 0.00 0.00 0.00 89
20260505233545 5 339 11.3 14.5 0.00 0.00 0.00 89
20260505233445 5 339 11.3 14.5 0.00 0.00 0.00 89
20260505233345 5 339 11.3 14.5 0.00 0.00 0.00 89
20260505233245 5 339 11.3 14.5 0.00 0.00 0.00 89
20260505233146 5 339 11.3 14.5 0.00 0.00 0.00 89
20260505233045 5 340 11.3 14.5 0.00 0.00 0.00 89
20260505232945 5 340 9.7 14.5 0.00 0.00 0.00 89
20260505232845 5 341 9.7 14.5 0.00 0.00 0.00 89
20260505232745 5 341 9.7 12.9 0.00 0.00 0.00 89
20260505232706 5 342 9.7 12.9 0.00 0.00 0.00 89
20260505232606 5 342 9.7 14.5 0.00 0.00 0.00 89
20260505232445 5 343 11.3 14.5 0.00 0.00 0.00 89
20260505232345 5 344 11.3 14.5 0.00 0.00 0.00 89
20260505232246 5 344 11.3 14.5 0.00 0.00 0.00 89
20260505232145 5 346 11.3 14.5 0.00 0.00 0.00 88
20260505232046 5 346 11.3 14.5 0.00 0.00 0.00 88
20260505231945 5 347 11.3 14.5 0.00 0.00 0.00 88
20260505231906 5 348 12.9 14.5 0.00 0.00 0.00 88
20260505231745 5 349 12.9 14.5 0.00 0.00 0.00 88
20260505231646 5 349 12.9 16.1 0.00 0.00 0.00 88
20260505231546 5 350 12.9 16.1 0.00 0.00 0.00 88
20260505231445 5 351 12.9 16.1 0.00 0.00 0.00 88
20260505231345 5 351 12.9 16.1 0.00 0.00 0.00 88
20260505231245 5 353 12.9 16.1 0.00 0.00 0.00 88
20260505231145 5 353 12.9 16.1 0.00 0.00 0.00 88
20260505231045 5 354 12.9 16.1 0.00 0.00 0.00 88
20260505231007 5 355 12.9 16.1 0.00 0.00 0.00 88
20260505230846 5 356 11.3 16.1 0.00 0.00 0.00 88
20260505230745 5 357 11.3 16.1 0.00 0.00 0.00 88
20260505230645 5 357 11.3 16.1 0.00 0.00 0.00 88
20260505230546 5 357 12.9 16.1 0.00 0.00 0.00 88
20260505230446 5 358 11.3 16.1 0.00 0.00 0.00 88
20260505230345 5 359 11.3 16.1 0.00 0.00 0.00 88
20260505230246 5 358 11.3 16.1 0.00 0.00 0.00 88
20260505230146 5 358 11.3 17.7 0.00 0.00 0.00 88
20260505230046 5 358 11.3 17.7 0.00 0.00 0.00 87
20260505225946 5 358 11.3 17.7 0.00 0.00 0.00 87
20260505225846 5 358 12.9 17.7 0.00 0.00 0.00 88
20260505225806 5 358 12.9 17.7 0.00 0.00 0.00 88
20260505225645 5 360 12.9 17.7 0.00 0.00 0.00 87
20260505225546 6 360 12.9 17.7 0.00 0.00 0.00 87
20260505225507 6 360 11.3 17.7 0.00 0.00 0.00 87
20260505225346 6 360 12.9 17.7 0.00 0.00 0.00 87
20260505225245 6 360 11.3 17.7 0.00 0.00 0.00 87
20260505225146 6 360 11.3 16.1 0.00 0.00 0.00 87
20260505225045 6 360 11.3 16.1 0.00 0.00 0.00 87
20260505224946 6 360 11.3 16.1 0.00 0.00 0.00 87
20260505224906 6 360 11.3 16.1 0.00 0.00 0.00 87
20260505224745 6 1 11.3 16.1 0.00 0.00 0.00 87
20260505224647 6 1 11.3 16.1 0.00 0.00 0.00 86
20260505224545 6 2 11.3 17.7 0.00 0.00 0.00 86
20260505224446 6 3 11.3 17.7 0.00 0.00 0.00 86
20260505224347 6 4 11.3 17.7 0.00 0.00 0.00 86
20260505224306 6 4 12.9 17.7 0.00 0.00 0.00 86
20260505224207 6 5 12.9 17.7 0.00 0.00 0.00 86
20260505224045 6 6 12.9 17.7 0.00 0.00 0.00 86
20260505223945 6 7 12.9 17.7 0.00 0.00 0.00 86
20260505223906 6 8 12.9 17.7 0.00 0.00 0.00 86
20260505223746 6 7 12.9 17.7 0.00 0.00 0.00 86
20260505223645 6 7 12.9 17.7 0.00 0.00 0.00 86
20260505223545 6 7 12.9 17.7 0.00 0.00 0.00 86
20260505223446 6 6 12.9 17.7 0.00 0.00 0.00 86
20260505223346 6 6 12.9 17.7 0.00 0.00 0.00 86
20260505223245 6 6 12.9 17.7 0.00 0.00 0.00 86
20260505223145 6 6 12.9 17.7 0.00 0.00 0.00 86
20260505223045 6 6 12.9 17.7 0.00 0.00 0.00 86
20260505222945 6 6 12.9 17.7 0.00 0.00 0.00 86
20260505222906 6 6 12.9 17.7 0.00 0.00 0.00 86
20260505222746 6 7 12.9 17.7 0.00 0.00 0.00 86
20260505222707 6 7 11.3 17.7 0.00 0.00 0.00 86
20260505222545 6 9 11.3 16.1 0.00 0.00 0.00 86
20260505222447 6 10 11.3 16.1 0.00 0.00 0.00 86
20260505222346 6 11 11.3 16.1 0.00 0.00 0.00 86
20260505222245 6 11 11.3 16.1 0.00 0.00 0.00 86
20260505222145 6 11 11.3 14.5 0.00 0.00 0.00 85
20260505222045 6 13 11.3 14.5 0.00 0.00 0.00 85
20260505221946 6 13 11.3 16.1 0.00 0.00 0.00 85
20260505221846 6 14 11.3 16.1 0.00 0.00 0.00 85
20260505221746 6 14 12.9 16.1 0.00 0.00 0.00 85
20260505221646 6 14 12.9 16.1 0.00 0.00 0.00 85
20260505221607 6 13 12.9 16.1 0.00 0.00 0.00 85
20260505221446 6 13 11.3 16.1 0.00 0.00 0.00 85
20260505221407 6 13 12.9 16.1 0.00 0.00 0.00 85
20260505221246 6 13 12.9 16.1 0.00 0.00 0.00 85
20260505221147 6 13 12.9 17.7 0.00 0.00 0.00 85
20260505221046 6 13 12.9 17.7 0.00 0.00 0.00 85
20260505221006 6 13 12.9 17.7 0.00 0.00 0.00 85
20260505220845 6 13 12.9 17.7 0.00 0.00 0.00 84
20260505220806 6 13 12.9 17.7 0.00 0.00 0.00 84
20260505220645 6 14 12.9 17.7 0.00 0.00 0.00 84
20260505220545 6 16 12.9 17.7 0.00 0.00 0.00 84
20260505220506 6 18 12.9 17.7 0.00 0.00 0.00 84
20260505220345 6 19 14.5 19.3 0.00 0.00 0.00 84
20260505220246 6 19 12.9 19.3 0.00 0.00 0.00 84
20260505220146 6 20 12.9 19.3 0.00 0.00 0.00 84
20260505220046 6 20 14.5 19.3 0.00 0.00 0.00 84
20260505215946 6 20 14.5 19.3 0.00 0.00 0.00 84
20260505215845 6 22 14.5 19.3 0.00 0.00 0.00 84
20260505215746 6 22 14.5 20.9 0.00 0.00 0.00 84
20260505215706 6 22 14.5 20.9 0.00 0.00 0.00 84
20260505215545 6 22 14.5 22.5 0.00 0.00 0.00 84
20260505215446 6 22 14.5 22.5 0.00 0.00 0.00 84
20260505215345 6 21 14.5 22.5 0.00 0.00 0.00 84
20260505215246 6 22 14.5 22.5 0.00 0.00 0.00 84
20260505215146 6 23 16.1 22.5 0.00 0.00 0.00 84
20260505215046 6 23 16.1 24.1 0.00 0.00 0.00 84
20260505214945 6 23 16.1 24.1 0.00 0.00 0.00 84
20260505214845 6 22 16.1 24.1 0.00 0.00 0.00 84
20260505214746 6 22 16.1 24.1 0.00 0.00 0.00 84
20260505214645 6 22 16.1 24.1 0.00 0.00 0.00 84
20260505214607 6 22 16.1 24.1 0.00 0.00 0.00 84
20260505214445 6 23 16.1 24.1 0.00 0.00 0.00 84
20260505214346 6 24 16.1 24.1 0.00 0.00 0.00 84
20260505214306 6 23 16.1 24.1 0.00 0.00 0.00 84
20260505214145 7 21 16.1 24.1 0.00 0.00 0.00 83
20260505214046 7 21 16.1 22.5 0.00 0.00 0.00 83
20260505213945 7 21 16.1 22.5 0.00 0.00 0.00 83
20260505213846 7 21 16.1 24.1 0.00 0.00 0.00 83
20260505213745 7 21 16.1 24.1 0.00 0.00 0.00 83
20260505213646 7 21 16.1 24.1 0.00 0.00 0.00 83
20260505213545 7 20 16.1 24.1 0.00 0.00 0.00 83
20260505213446 7 20 16.1 24.1 0.00 0.00 0.00 83
20260505213346 7 20 16.1 24.1 0.00 0.00 0.00 83
20260505213246 7 21 16.1 24.1 0.00 0.00 0.00 83
20260505213146 7 22 16.1 24.1 0.00 0.00 0.00 83
20260505213106 7 22 16.1 24.1 0.00 0.00 0.00 83
20260505212946 7 23 16.1 24.1 0.00 0.00 0.00 83
20260505212845 7 23 16.1 22.5 0.00 0.00 0.00 83
20260505212745 7 22 16.1 24.1 0.00 0.00 0.00 83
20260505212646 7 21 16.1 24.1 0.00 0.00 0.00 83
20260505212546 7 20 16.1 24.1 0.00 0.00 0.00 82
20260505212446 7 21 14.5 24.1 0.00 0.00 0.00 82
20260505212346 7 20 14.5 24.1 0.00 0.00 0.00 82
20260505212246 7 20 14.5 24.1 0.00 0.00 0.00 82
20260505212146 7 20 14.5 24.1 0.00 0.00 0.00 82
20260505212047 7 19 14.5 24.1 0.00 0.00 0.00 82
20260505211945 7 20 14.5 24.1 0.00 0.00 0.00 82
20260505211846 7 19 14.5 24.1 0.00 0.00 0.00 82
20260505211745 7 19 14.5 24.1 0.00 0.00 0.00 81
20260505211645 7 20 14.5 24.1 0.00 0.00 0.00 81
20260505211546 7 20 16.1 24.1 0.00 0.00 0.00 81
20260505211507 7 19 16.1 24.1 0.00 0.00 0.00 81
20260505211345 7 19 16.1 24.1 0.00 0.00 0.00 81
20260505211245 7 20 16.1 24.1 0.00 0.00 0.00 81
20260505211146 7 19 16.1 24.1 0.00 0.00 0.00 81
20260505211045 7 19 16.1 24.1 0.00 0.00 0.00 81
20260505210945 7 18 17.7 24.1 0.00 0.00 0.00 81
20260505210906 7 17 16.1 24.1 0.00 0.00 0.00 81
20260505210745 7 17 16.1 24.1 0.00 0.00 0.00 80
20260505210645 7 18 16.1 24.1 0.00 0.00 0.00 80
20260505210547 7 19 14.5 24.1 0.00 0.00 0.00 80
20260505210445 7 20 14.5 24.1 0.00 0.00 0.00 80
20260505210346 7 19 14.5 22.5 0.00 0.00 0.00 80
20260505210246 7 19 14.5 20.9 0.00 0.00 0.00 80
20260505210146 7 19 14.5 20.9 0.00 0.00 0.00 80
20260505210045 7 20 12.9 19.3 0.00 0.00 0.00 80
20260505210006 7 20 12.9 19.3 0.00 0.00 0.00 80
20260505205845 7 21 12.9 19.3 0.00 0.00 0.00 80
20260505205745 7 21 12.9 19.3 0.00 0.00 0.00 79
20260505205646 7 20 12.9 19.3 0.00 0.00 0.00 79
20260505205545 7 21 12.9 19.3 0.00 0.00 0.00 79
20260505205507 7 20 12.9 19.3 0.00 0.00 0.00 79
20260505205345 7 19 12.9 19.3 0.00 0.00 0.00 80
20260505205245 7 19 12.9 19.3 0.00 0.00 0.00 80
20260505205146 7 19 12.9 19.3 0.00 0.00 0.00 79
20260505205045 7 20 12.9 19.3 0.00 0.00 0.00 79
20260505204946 7 21 12.9 19.3 0.00 0.00 0.00 79
20260505204845 7 22 11.3 19.3 0.00 0.00 0.00 79
20260505204806 7 23 12.9 19.3 0.00 0.00 0.00 79
20260505204645 7 24 12.9 19.3 0.00 0.00 0.00 79
20260505204545 7 24 12.9 19.3 0.00 0.00 0.00 79
20260505204445 7 25 12.9 24.1 0.00 0.00 0.00 79
20260505204345 7 27 12.9 24.1 0.00 0.00 0.00 79
20260505204245 7 26 14.5 24.1 0.00 0.00 0.00 79
20260505204145 7 26 14.5 24.1 0.00 0.00 0.00 78
20260505204045 7 25 14.5 24.1 0.00 0.00 0.00 78
20260505203945 7 24 14.5 24.1 0.00 0.00 0.00 78
20260505203846 7 24 14.5 24.1 0.00 0.00 0.00 78
20260505203746 7 24 14.5 24.1 0.00 0.00 0.00 78
20260505203706 7 25 14.5 24.1 0.00 0.00 0.00 78
20260505203545 7 26 14.5 24.1 0.00 0.00 0.00 78
20260505203446 7 26 12.9 20.9 0.00 0.00 0.00 78
20260505203346 7 26 12.9 20.9 0.00 0.00 0.00 79
20260505203246 7 26 12.9 19.3 0.00 0.00 0.00 78
20260505203146 7 27 12.9 19.3 0.00 0.00 0.00 78
20260505203045 7 29 12.9 19.3 0.00 0.00 0.00 78
20260505202946 7 30 11.3 19.3 0.00 0.00 0.00 78
20260505202907 7 30 11.3 19.3 0.00 0.00 0.00 78
20260505202745 7 32 11.3 19.3 0.00 0.00 0.00 78
20260505202645 7 30 11.3 19.3 0.00 0.00 0.00 78
20260505202545 7 29 11.3 19.3 0.00 0.00 0.00 78
20260505202445 7 29 11.3 19.3 0.00 0.00 0.00 78
20260505202406 7 28 11.3 19.3 0.00 0.00 0.00 78
20260505202246 7 29 11.3 20.9 0.00 0.00 0.00 78
20260505202146 7 29 12.9 20.9 0.00 0.00 0.00 78
20260505202046 7 29 12.9 22.5 0.00 0.00 0.00 78
20260505201946 7 29 14.5 22.5 0.00 0.00 0.00 78
20260505201845 7 29 14.5 22.5 0.00 0.00 0.00 78
20260505201746 7 28 14.5 22.5 0.00 0.00 0.00 78
20260505201645 7 29 14.5 22.5 0.00 0.00 0.00 77
20260505201545 7 29 16.1 22.5 0.00 0.00 0.00 77
20260505201445 7 29 16.1 22.5 0.00 0.00 0.00 77
20260505201346 7 28 16.1 22.5 0.00 0.00 0.00 77
20260505201306 7 28 16.1 22.5 0.00 0.00 0.00 77
20260505201146 7 26 16.1 22.5 0.00 0.00 0.00 77
20260505201045 7 27 14.5 22.5 0.00 0.00 0.00 77
20260505200946 7 27 14.5 22.5 0.00 0.00 0.00 77
20260505200845 7 28 16.1 22.5 0.00 0.00 0.00 77
20260505200745 7 28 14.5 22.5 0.00 0.00 0.00 77
20260505200646 7 27 16.1 22.5 0.00 0.00 0.00 77
20260505200607 7 27 16.1 22.5 0.00 0.00 0.00 77
20260505200446 7 25 16.1 29.0 0.00 0.00 0.00 77
20260505200346 7 27 16.1 29.0 0.00 0.00 0.00 77
20260505200246 7 27 16.1 29.0 0.00 0.00 0.00 77
20260505200207 7 28 16.1 29.0 0.00 0.00 0.00 77
20260505200045 7 27 16.1 29.0 0.00 0.00 0.00 77
20260505195946 7 26 16.1 29.0 0.00 0.00 0.00 77
20260505195845 7 25 16.1 29.0 0.00 0.00 0.00 77
20260505195746 7 24 16.1 29.0 0.00 0.00 0.00 77
20260505195646 8 23 16.1 29.0 0.00 0.00 0.00 77
20260505195545 8 23 16.1 29.0 0.00 0.00 0.00 78
20260505195446 8 24 16.1 24.1 0.00 0.00 0.00 78
20260505195406 8 23 17.7 24.1 0.00 0.00 0.00 78
20260505195245 8 22 17.7 24.1 0.00 0.00 0.00 78
20260505195145 8 21 16.1 24.1 0.00 0.00 0.00 78
20260505195046 8 22 16.1 24.1 0.00 0.00 0.00 78
20260505194945 8 22 16.1 24.1 0.00 0.00 0.00 78
20260505194845 8 22 16.1 24.1 0.00 0.00 0.00 78
20260505194745 8 22 16.1 24.1 0.00 0.00 0.00 78
20260505194645 8 24 16.1 24.1 0.00 0.00 0.00 78
20260505194606 8 24 16.1 24.1 0.00 0.00 0.00 78
20260505194445 8 25 14.5 24.1 0.00 0.00 0.00 78
20260505194347 8 26 14.5 24.1 0.00 0.00 0.00 78
20260505194245 8 29 16.1 25.7 0.00 0.00 0.00 78
20260505194145 8 30 16.1 25.7 0.00 0.00 0.00 78
20260505194106 8 30 16.1 30.6 0.00 0.00 0.00 78
20260505193946 8 31 16.1 30.6 0.00 0.00 0.00 78
20260505193846 8 32 17.7 30.6 0.00 0.00 0.00 78
20260505193745 8 32 17.7 30.6 0.00 0.00 0.00 78
20260505193645 8 31 17.7 30.6 0.00 0.00 0.00 77
20260505193545 8 30 17.7 30.6 0.00 0.00 0.00 78
20260505193447 8 30 19.3 30.6 0.00 0.00 0.00 77
20260505193345 8 30 19.3 30.6 0.00 0.00 0.00 78
20260505193245 8 28 17.7 30.6 0.00 0.00 0.00 78
20260505193145 8 29 17.7 30.6 0.00 0.00 0.00 78
20260505193106 8 29 17.7 30.6 0.00 0.00 0.00 78
20260505192946 8 29 17.7 30.6 0.00 0.00 0.00 78
20260505192845 8 28 17.7 30.6 0.00 0.00 0.00 78
20260505192745 8 28 17.7 30.6 0.00 0.00 0.00 78
20260505192645 8 28 17.7 30.6 0.00 0.00 0.00 78
20260505192547 8 29 17.7 30.6 0.00 0.00 0.00 79
20260505192445 8 28 16.1 30.6 0.00 0.00 0.00 79
20260505192346 8 28 16.1 25.7 0.00 0.00 0.00 79
20260505192306 8 28 16.1 25.7 0.00 0.00 0.00 79
20260505192207 8 27 14.5 25.7 0.00 0.00 0.00 79
20260505192045 8 26 14.5 22.5 0.00 0.00 0.00 80
20260505191945 8 26 14.5 22.5 0.00 0.00 0.00 80
20260505191845 8 27 14.5 22.5 0.00 0.00 0.00 80
20260505191745 8 28 14.5 22.5 0.00 0.00 0.00 80
20260505191707 8 28 12.9 22.5 0.00 0.00 0.00 80
20260505191545 8 29 12.9 22.5 0.00 0.00 0.00 80
20260505191445 8 30 12.9 20.9 0.00 0.00 0.00 80
20260505191345 8 30 12.9 20.9 0.00 0.00 0.00 80
20260505191245 8 30 12.9 20.9 0.00 0.00 0.00 80
20260505191145 8 31 12.9 20.9 0.00 0.00 0.00 80
20260505191045 8 31 12.9 22.5 0.00 0.00 0.00 80
20260505190946 8 31 12.9 22.5 0.00 0.00 0.00 80
20260505190845 8 31 12.9 24.1 0.00 0.00 0.00 80
20260505190746 8 31 14.5 24.1 0.00 0.00 0.00 80
20260505190645 8 31 14.5 24.1 0.00 0.00 0.00 80
20260505190546 8 31 14.5 24.1 0.00 0.00 0.00 80
20260505190446 8 32 14.5 24.1 0.00 0.00 0.00 80
20260505190346 8 33 14.5 24.1 0.00 0.00 0.00 80
20260505190245 8 34 14.5 24.1 0.00 0.00 0.00 80
20260505190145 8 34 12.9 24.1 0.00 0.00 0.00 80
20260505190106 8 34 12.9 24.1 0.00 0.00 0.00 80
20260505185946 8 34 12.9 24.1 0.00 0.00 0.00 80
20260505185846 8 36 12.9 22.5 0.00 0.00 0.00 80
20260505185807 8 36 12.9 22.5 0.00 0.00 0.00 80
20260505185707 8 36 14.5 22.5 0.00 0.00 0.00 80
20260505185545 8 36 14.5 29.0 0.00 0.00 0.00 80
20260505185445 8 35 14.5 29.0 0.00 0.00 0.00 80
20260505185345 8 35 14.5 29.0 0.00 0.00 0.00 80
20260505185246 8 35 14.5 29.0 0.00 0.00 0.00 80
20260505185145 8 35 16.1 29.0 0.00 0.00 0.00 80
20260505185107 8 35 16.1 29.0 0.00 0.00 0.00 80
20260505184945 8 35 16.1 29.0 0.00 0.00 0.00 80
20260505184846 8 33 16.1 29.0 0.00 0.00 0.00 80
20260505184745 8 33 16.1 29.0 0.00 0.00 0.00 80
20260505184645 8 34 16.1 29.0 0.00 0.00 0.00 80
20260505184545 8 34 16.1 33.8 0.00 0.00 0.00 80
20260505184506 8 33 16.1 33.8 0.00 0.00 0.00 80
20260505184345 8 33 17.7 35.4 0.00 0.00 0.00 80
20260505184245 8 34 17.7 35.4 0.00 0.00 0.00 80
20260505184145 8 35 17.7 35.4 0.00 0.00 0.00 80
20260505184106 8 34 17.7 35.4 0.00 0.00 0.00 80
20260505183945 8 33 19.3 35.4 0.00 0.00 0.00 80
20260505183845 8 34 19.3 35.4 0.00 0.00 0.00 79
20260505183745 8 34 17.7 35.4 0.00 0.00 0.00 79
20260505183646 8 33 17.7 35.4 0.00 0.00 0.00 79
20260505183545 8 34 17.7 35.4 0.00 0.00 0.00 79
20260505183445 8 35 17.7 35.4 0.00 0.00 0.00 79
20260505183346 8 34 16.1 32.2 0.00 0.00 0.00 79
20260505183247 8 33 16.1 32.2 0.00 0.00 0.00 79
20260505183206 8 33 14.5 30.6 0.00 0.00 0.00 79
20260505183045 9 33 16.1 25.7 0.00 0.00 0.00 79
20260505183006 9 34 14.5 25.7 0.00 0.00 0.00 79
20260505182846 9 36 14.5 24.1 0.00 0.00 0.00 78
20260505182745 9 34 16.1 25.7 0.00 0.00 0.00 78
20260505182646 9 35 16.1 25.7 0.00 0.00 0.00 78
20260505182606 9 34 16.1 25.7 0.00 0.00 0.00 78
20260505182445 9 34 16.1 25.7 0.00 0.00 0.00 78
20260505182345 9 35 16.1 25.7 0.00 0.00 0.00 78
20260505182245 9 35 14.5 25.7 0.00 0.00 0.00 78
20260505182145 9 35 14.5 25.7 0.00 0.00 0.00 78
20260505182045 9 33 14.5 25.7 0.00 0.00 0.00 78
20260505182006 9 33 14.5 25.7 0.00 0.00 0.00 78
20260505181845 9 29 16.1 32.2 0.00 0.00 0.00 78
20260505181745 9 27 16.1 32.2 0.00 0.00 0.00 78
20260505181707 9 27 16.1 32.2 0.00 0.00 0.00 78
20260505181545 9 27 16.1 32.2 0.00 0.00 0.00 78
20260505181446 9 25 17.7 32.2 0.00 0.00 0.00 78
20260505181346 9 24 17.7 32.2 0.00 0.00 0.00 77
20260505181246 9 24 19.3 32.2 0.00 0.00 0.00 77
20260505181145 9 25 19.3 32.2 0.00 0.00 0.00 77
20260505181046 9 24 20.9 32.2 0.00 0.00 0.00 77
20260505180945 9 24 20.9 35.4 0.00 0.00 0.00 77
20260505180847 9 25 20.9 35.4 0.00 0.00 0.00 76
20260505180745 9 25 20.9 35.4 0.00 0.00 0.00 76
20260505180645 9 26 20.9 35.4 0.00 0.00 0.00 76
20260505180545 10 25 20.9 35.4 0.00 0.00 0.00 75
20260505180445 10 26 19.3 35.4 0.00 0.00 0.00 75
20260505180346 10 27 19.3 35.4 0.00 0.00 0.00 75
20260505180245 10 28 20.9 35.4 0.00 0.00 0.00 75
20260505180145 10 27 19.3 35.4 0.00 0.00 0.00 75
20260505180045 10 28 17.7 35.4 0.00 0.00 0.00 75
20260505180007 10 29 17.7 30.6 0.00 0.00 0.00 75
20260505175845 10 28 16.1 25.7 0.00 0.00 0.00 74
20260505175807 10 29 16.1 25.7 0.00 0.00 0.00 74
20260505175706 10 28 16.1 25.7 0.00 0.00 0.00 74
20260505175546 10 27 16.1 25.7 0.00 0.00 0.00 74
20260505175445 10 26 16.1 25.7 0.00 0.00 0.00 73
20260505175345 10 25 16.1 25.7 0.00 0.00 0.00 73
20260505175307 10 25 14.5 25.7 0.00 0.00 0.00 73
20260505175145 10 25 14.5 24.1 0.00 0.00 0.00 73
20260505175106 10 25 16.1 24.1 0.00 0.00 0.00 73
20260505175006 10 25 16.1 24.1 0.00 0.00 0.00 72
20260505174845 10 24 16.1 24.1 0.00 0.00 0.00 72
20260505174806 10 23 16.1 24.1 0.00 0.00 0.00 72
20260505174647 10 24 16.1 24.1 0.00 0.00 0.00 72
20260505174606 10 24 16.1 22.5 0.00 0.00 0.00 72
20260505174447 10 25 14.5 22.5 0.00 0.00 0.00 71
20260505174345 10 25 14.5 22.5 0.00 0.00 0.00 72
20260505174245 10 25 14.5 22.5 0.00 0.00 0.00 72
20260505174145 10 26 14.5 22.5 0.00 0.00 0.00 72
20260505174045 10 26 12.9 22.5 0.00 0.00 0.00 73
20260505173946 10 28 12.9 20.9 0.00 0.00 0.00 73
20260505173845 10 31 11.3 19.3 0.00 0.00 0.00 73
20260505173745 10 32 11.3 19.3 0.00 0.00 0.00 73
20260505173645 10 35 11.3 19.3 0.00 0.00 0.00 74
20260505173545 10 37 11.3 19.3 0.00 0.00 0.00 74
20260505173446 10 38 11.3 19.3 0.00 0.00 0.00 74
20260505173406 10 39 11.3 19.3 0.00 0.00 0.00 74
20260505173307 10 41 11.3 19.3 0.00 0.00 0.00 74
20260505173206 10 41 9.7 19.3 0.00 0.00 0.00 74
20260505173046 10 42 11.3 20.9 0.00 0.00 0.00 74
20260505172947 10 41 11.3 20.9 0.00 0.00 0.00 75
20260505172845 10 41 11.3 20.9 0.00 0.00 0.00 75
20260505172745 10 41 11.3 20.9 0.00 0.00 0.00 74
20260505172646 10 41 11.3 20.9 0.00 0.00 0.00 74
20260505172606 10 41 11.3 20.9 0.00 0.00 0.00 74
20260505172446 10 42 11.3 20.9 0.00 0.00 0.00 74
20260505172346 10 40 12.9 22.5 0.00 0.00 0.00 74
20260505172246 10 42 11.3 22.5 0.00 0.00 0.00 74
20260505172206 10 42 12.9 22.5 0.00 0.00 0.00 74
20260505172046 10 41 11.3 22.5 0.00 0.00 0.00 74
20260505171945 10 41 11.3 22.5 0.00 0.00 0.00 73
20260505171845 10 41 11.3 22.5 0.00 0.00 0.00 73
20260505171746 10 40 12.9 22.5 0.00 0.00 0.00 73
20260505171645 10 39 12.9 22.5 0.00 0.00 0.00 73
20260505171545 10 39 12.9 22.5 0.00 0.00 0.00 73
20260505171445 10 39 12.9 22.5 0.00 0.00 0.00 74
20260505171345 10 41 12.9 19.3 0.00 0.00 0.00 74
20260505171245 10 42 12.9 19.3 0.00 0.00 0.00 74
20260505171145 10 42 12.9 19.3 0.00 0.00 0.00 75
20260505171046 10 43 11.3 19.3 0.00 0.00 0.00 75
20260505171006 10 43 11.3 19.3 0.00 0.00 0.00 75
20260505170906 10 44 12.9 19.3 0.00 0.00 0.00 75
20260505170807 10 46 11.3 19.3 0.00 0.00 0.00 76
20260505170706 10 47 11.3 19.3 0.00 0.00 0.00 76
20260505170546 10 46 11.3 19.3 0.00 0.00 0.00 77
20260505170445 10 45 11.3 19.3 0.00 0.00 0.00 77
20260505170407 10 45 11.3 19.3 0.00 0.00 0.00 77
20260505170245 10 45 11.3 19.3 0.00 0.00 0.00 77
20260505170145 10 47 11.3 17.7 0.00 0.00 0.00 77
20260505170046 10 48 11.3 17.7 0.00 0.00 0.00 77
20260505165946 10 50 11.3 19.3 0.00 0.00 0.00 78
20260505165846 10 48 11.3 19.3 0.00 0.00 0.00 78
20260505165745 10 49 11.3 19.3 0.00 0.00 0.00 78
20260505165645 10 49 11.3 19.3 0.00 0.00 0.00 78
20260505165545 10 49 11.3 22.5 0.00 0.00 0.00 78
20260505165507 10 49 11.3 22.5 0.00 0.00 0.00 78
20260505165345 10 50 11.3 22.5 0.00 0.00 0.00 78
20260505165306 10 50 11.3 22.5 0.00 0.00 0.00 78
20260505165146 10 49 11.3 22.5 0.00 0.00 0.00 78
20260505165045 10 47 11.3 22.5 0.00 0.00 0.00 79
20260505164946 10 46 11.3 22.5 0.00 0.00 0.00 79
20260505164845 10 47 11.3 22.5 0.00 0.00 0.00 79
20260505164745 10 46 11.3 22.5 0.00 0.00 0.00 78
20260505164645 10 45 12.9 22.5 0.00 0.00 0.00 78
20260505164546 10 47 11.3 22.5 0.00 0.00 0.00 78
20260505164446 10 47 11.3 19.3 0.00 0.00 0.00 78
20260505164345 10 46 11.3 20.9 0.00 0.00 0.00 78
20260505164245 10 46 12.9 22.5 0.00 0.00 0.00 78
20260505164146 10 46 12.9 24.1 0.00 0.00 0.00 78
20260505164046 10 46 12.9 24.1 0.00 0.00 0.00 78
20260505163945 10 46 12.9 24.1 0.00 0.00 0.00 78
20260505163845 10 45 12.9 24.1 0.00 0.00 0.00 78
20260505163745 10 44 12.9 24.1 0.00 0.00 0.00 78
20260505163646 10 44 12.9 24.1 0.00 0.00 0.00 78
20260505163545 10 42 12.9 24.1 0.00 0.00 0.00 78
20260505163447 10 41 12.9 24.1 0.00 0.00 0.00 78
20260505163406 10 40 12.9 24.1 0.00 0.00 0.00 78
20260505163306 10 41 12.9 24.1 0.00 0.00 0.00 78
20260505163207 10 39 12.9 20.9 0.00 0.00 0.00 79
20260505163045 10 39 12.9 20.9 0.00 0.00 0.00 79
20260505163008 10 40 12.9 20.9 0.00 0.00 0.00 79
20260505162845 10 39 12.9 20.9 0.00 0.00 0.00 79
20260505162745 10 40 12.9 20.9 0.00 0.00 0.00 79
20260505162646 10 39 12.9 20.9 0.00 0.00 0.00 78
20260505162545 10 38 12.9 20.9 0.00 0.00 0.00 79
20260505162506 10 38 12.9 20.9 0.00 0.00 0.00 79
20260505162346 10 38 12.9 20.9 0.00 0.00 0.00 78
20260505162246 10 36 12.9 20.9 0.00 0.00 0.00 79
20260505162146 10 35 12.9 20.9 0.00 0.00 0.00 79
20260505162045 10 34 12.9 20.9 0.00 0.00 0.00 79
20260505161945 10 33 12.9 20.9 0.00 0.00 0.00 79
20260505161846 10 33 12.9 19.3 0.00 0.00 0.00 79
20260505161746 10 32 12.9 20.9 0.00 0.00 0.00 79
20260505161646 10 34 12.9 20.9 0.00 0.00 0.00 79
20260505161546 10 34 12.9 20.9 0.00 0.00 0.00 79
20260505161445 10 35 12.9 20.9 0.00 0.00 0.00 79
20260505161345 10 37 12.9 20.9 0.00 0.00 0.00 79
20260505161246 10 38 12.9 20.9 0.00 0.00 0.00 79
20260505161145 10 38 12.9 20.9 0.00 0.00 0.00 78
20260505161046 10 39 12.9 20.9 0.00 0.00 0.00 78
20260505160946 10 40 12.9 22.5 0.00 0.00 0.00 78
20260505160846 10 41 12.9 22.5 0.00 0.00 0.00 78
20260505160745 10 42 12.9 22.5 0.00 0.00 0.00 78
20260505160645 10 42 12.9 22.5 0.00 0.00 0.00 78
20260505160545 10 41 12.9 22.5 0.00 0.00 0.00 78
20260505160446 10 40 12.9 22.5 0.00 0.00 0.00 78
20260505160346 10 40 12.9 22.5 0.00 0.00 0.00 78
20260505160245 10 41 14.5 24.1 0.00 0.00 0.00 78
20260505160145 10 41 12.9 24.1 0.00 0.00 0.00 78
20260505153346 10 36 14.5 20.9 0.00 0.00 0.00 79
20260505153307 10 37 14.5 20.9 0.00 0.00 0.00 79
20260505153207 10 38 14.5 24.1 0.00 0.00 0.00 79
20260505153047 10 39 14.5 24.1 0.00 0.00 0.00 78
20260505152945 10 40 14.5 24.1 0.00 0.00 0.00 78
20260505152846 10 40 14.5 24.1 0.00 0.00 0.00 78
20260505152745 10 40 14.5 24.1 0.00 0.00 0.00 78
20260505152645 10 40 14.5 24.1 0.00 0.00 0.00 78
20260505152545 10 39 14.5 24.1 0.00 0.00 0.00 78
20260505152446 10 40 14.5 24.1 0.00 0.00 0.00 78
20260505152346 10 40 14.5 24.1 0.00 0.00 0.00 78
20260505152245 10 40 14.5 24.1 0.00 0.00 0.00 79
20260505152206 10 40 12.9 24.1 0.00 0.00 0.00 79
20260505152045 10 42 12.9 24.1 0.00 0.00 0.00 79
20260505151946 10 41 12.9 20.9 0.00 0.00 0.00 79
20260505151845 10 42 12.9 20.9 0.00 0.00 0.00 79
20260505151806 10 43 12.9 20.9 0.00 0.00 0.00 79
20260505151646 10 43 11.3 20.9 0.00 0.00 0.00 80
20260505151546 10 47 11.3 20.9 0.00 0.00 0.00 80
20260505151445 10 47 11.3 20.9 0.00 0.00 0.00 80
20260505151345 10 47 11.3 20.9 0.00 0.00 0.00 80
20260505151306 10 47 11.3 20.9 0.00 0.00 0.00 80
20260505151145 10 48 11.3 20.9 0.00 0.00 0.00 79
20260505151046 10 47 11.3 20.9 0.00 0.00 0.00 79
20260505150945 10 47 11.3 20.9 0.00 0.00 0.00 79
20260505150845 10 46 11.3 22.5 0.00 0.00 0.00 79
20260505150807 10 47 11.3 22.5 0.00 0.00 0.00 79
20260505150647 10 49 11.3 22.5 0.00 0.00 0.00 79
20260505150606 10 49 11.3 22.5 0.00 0.00 0.00 79
20260505150446 10 49 11.3 22.5 0.00 0.00 0.00 79
20260505150408 10 50 11.3 22.5 0.00 0.00 0.00 79
20260505150246 10 49 11.3 22.5 0.00 0.00 0.00 79
20260505150145 10 49 11.3 22.5 0.00 0.00 0.00 79
20260505140546 12 47 11.3 19.3 0.00 0.00 0.00 75
20260505140446 12 46 11.3 19.3 0.00 0.00 0.00 75
20260505140346 12 44 11.3 22.5 0.00 0.00 0.00 75
20260505140246 12 44 11.3 22.5 0.00 0.00 0.00 74
20260505140146 12 44 11.3 22.5 0.00 0.00 0.00 74
20260505130246 13 322 16.1 20.9 0.00 0.00 0.00 66
20260505130207 13 322 16.1 20.9 0.00 0.00 0.00 66
20260505124946 13 311 16.1 20.9 0.00 0.00 0.00 66
20260505124847 13 310 16.1 20.9 0.00 0.00 0.00 67
20260505124745 13 310 16.1 20.9 0.00 0.00 0.00 67
20260505124646 13 311 16.1 20.9 0.00 0.00 0.00 67
20260505124607 13 312 16.1 20.9 0.00 0.00 0.00 67
20260505124446 13 317 16.1 20.9 0.00 0.00 0.00 67
20260505124346 13 321 14.5 20.9 0.00 0.00 0.00 67
20260505124246 13 324 14.5 20.9 0.00 0.00 0.00 66
20260505124146 13 326 14.5 20.9 0.00 0.00 0.00 67
20260505124045 13 329 14.5 20.9 0.00 0.00 0.00 67
20260505123946 13 333 14.5 20.9 0.00 0.00 0.00 67
20260505123846 13 336 14.5 22.5 0.00 0.00 0.00 66
20260505123807 13 338 16.1 24.1 0.00 0.00 0.00 66
20260505123646 13 339 16.1 29.0 0.00 0.00 0.00 65
20260505123546 13 338 16.1 29.0 0.00 0.00 0.00 65
20260505123446 13 336 16.1 29.0 0.00 0.00 0.00 66
20260505123407 13 336 16.1 29.0 0.00 0.00 0.00 66
20260505123246 13 337 17.7 29.0 0.00 0.00 0.00 66
20260505123146 13 338 17.7 29.0 0.00 0.00 0.00 65
20260505123107 13 339 17.7 29.0 0.00 0.00 0.00 65
20260505122945 13 339 17.7 29.0 0.00 0.00 0.00 67
20260505122907 13 339 17.7 29.0 0.00 0.00 0.00 67
20260505122746 13 340 17.7 29.0 0.00 0.00 0.00 68
20260505122646 13 340 17.7 25.7 0.00 0.00 0.00 68
20260505122546 12 339 17.7 25.7 0.00 0.00 0.00 67
20260505122506 12 339 17.7 25.7 0.00 0.00 0.00 67
20260505122407 12 338 17.7 25.7 0.00 0.00 0.00 66
20260505122246 12 336 17.7 25.7 0.00 0.00 0.00 68
20260505122207 12 334 16.1 24.1 0.00 0.00 0.00 68
20260505122046 12 334 16.1 24.1 0.00 0.00 0.00 67
20260505121946 12 333 16.1 24.1 0.00 0.00 0.00 68
20260505121845 12 333 14.5 22.5 0.00 0.00 0.00 69
20260505121746 12 334 14.5 22.5 0.00 0.00 0.00 68
20260505121646 12 335 14.5 22.5 0.00 0.00 0.00 67
20260505121546 12 335 14.5 22.5 0.00 0.00 0.00 67
20260505121446 12 335 14.5 22.5 0.00 0.00 0.00 67
20260505121346 12 337 14.5 22.5 0.00 0.00 0.00 67
20260505121245 12 340 14.5 20.9 0.00 0.00 0.00 66
20260505121146 12 345 14.5 20.9 0.00 0.00 0.00 65
20260505121046 13 349 16.1 20.9 0.00 0.00 0.00 66
20260505120946 13 353 14.5 20.9 0.00 0.00 0.00 64
20260505120846 13 355 16.1 20.9 0.00 0.00 0.00 64
20260505120745 13 357 16.1 20.9 0.00 0.00 0.00 64
20260505120646 13 357 16.1 20.9 0.00 0.00 0.00 62
20260505120546 13 358 14.5 20.9 0.00 0.00 0.00 64
20260505120446 13 357 14.5 20.9 0.00 0.00 0.00 63
20260505120346 13 355 14.5 20.9 0.00 0.00 0.00 63
20260505120307 13 351 12.9 20.9 0.00 0.00 0.00 63
20260505120147 13 346 12.9 20.9 0.00 0.00 0.00 61
20260505120046 13 340 11.3 20.9 0.00 0.00 0.00 60
20260505115946 13 335 11.3 20.9 0.00 0.00 0.00 61
20260505115846 13 329 11.3 20.9 0.00 0.00 0.00 62
20260505115746 13 319 11.3 19.3 0.00 0.00 0.00 61
20260505115646 13 315 11.3 19.3 0.00 0.00 0.00 59
20260505115546 13 314 11.3 19.3 0.00 0.00 0.00 63
20260505115445 13 317 11.3 19.3 0.00 0.00 0.00 64
20260505115346 13 319 11.3 17.7 0.00 0.00 0.00 62
20260505115246 13 318 11.3 17.7 0.00 0.00 0.00 62
20260505115207 13 315 11.3 17.7 0.00 0.00 0.00 62
20260505115045 13 309 11.3 17.7 0.00 0.00 0.00 64
20260505114946 13 307 12.9 17.7 0.00 0.00 0.00 63
20260505114846 13 306 12.9 17.7 0.00 0.00 0.00 66
20260505114746 13 307 12.9 17.7 0.00 0.00 0.00 67
20260505114646 12 310 12.9 17.7 0.00 0.00 0.00 66
20260505114546 12 311 12.9 17.7 0.00 0.00 0.00 68
20260505114446 12 310 12.9 17.7 0.00 0.00 0.00 66
20260505114407 12 311 12.9 17.7 0.00 0.00 0.00 66
20260505114246 12 318 11.3 17.7 0.00 0.00 0.00 65
20260505114146 12 324 11.3 17.7 0.00 0.00 0.00 64
20260505114047 12 331 11.3 17.7 0.00 0.00 0.00 64
20260505113947 12 337 11.3 17.7 0.00 0.00 0.00 65
20260505113845 13 342 11.3 17.7 0.00 0.00 0.00 63
20260505113746 13 347 11.3 17.7 0.00 0.00 0.00 65
20260505113646 13 348 11.3 17.7 0.00 0.00 0.00 64
20260505113546 13 347 11.3 17.7 0.00 0.00 0.00 64
20260505113446 13 347 11.3 17.7 0.00 0.00 0.00 63
20260505113346 13 345 11.3 17.7 0.00 0.00 0.00 65
20260505113246 13 343 12.9 17.7 0.00 0.00 0.00 64
20260505113146 13 340 12.9 17.7 0.00 0.00 0.00 64
20260505113047 13 338 12.9 22.5 0.00 0.00 0.00 65
20260505112946 12 335 12.9 22.5 0.00 0.00 0.00 66
20260505112846 12 333 12.9 22.5 0.00 0.00 0.00 66
20260505112746 12 328 12.9 22.5 0.00 0.00 0.00 65
20260505112646 12 326 12.9 22.5 0.00 0.00 0.00 64
20260505112546 12 325 12.9 22.5 0.00 0.00 0.00 64
20260505112446 12 323 12.9 22.5 0.00 0.00 0.00 65
20260505112347 12 321 12.9 22.5 0.00 0.00 0.00 64
20260505112246 12 320 12.9 22.5 0.00 0.00 0.00 64
20260505112207 12 319 12.9 22.5 0.00 0.00 0.00 64
20260505112046 13 319 12.9 19.3 0.00 0.00 0.00 68
20260505111946 12 320 12.9 19.3 0.00 0.00 0.00 67
20260505111845 12 320 11.3 19.3 0.00 0.00 0.00 65
20260505111807 12 324 11.3 19.3 0.00 0.00 0.00 65
20260505111646 12 331 11.3 19.3 0.00 0.00 0.00 64
20260505111546 12 336 11.3 19.3 0.00 0.00 0.00 64
20260505111446 12 342 11.3 19.3 0.00 0.00 0.00 64
20260505111407 12 345 9.7 19.3 0.00 0.00 0.00 64
20260505111246 13 352 8.0 19.3 0.00 0.00 0.00 65
20260505111146 13 355 8.0 19.3 0.00 0.00 0.00 66
20260505111107 12 357 8.0 14.5 0.00 0.00 0.00 66
20260505110946 12 353 8.0 14.5 0.00 0.00 0.00 67
20260505110846 12 349 8.0 14.5 0.00 0.00 0.00 67
20260505110807 12 345 8.0 12.9 0.00 0.00 0.00 67
20260505110707 12 338 8.0 12.9 0.00 0.00 0.00 67
20260505110547 12 334 8.0 12.9 0.00 0.00 0.00 68
20260505110507 12 330 9.7 12.9 0.00 0.00 0.00 68
20260505110346 12 326 9.7 12.9 0.00 0.00 0.00 68
20260505110246 12 327 11.3 16.1 0.00 0.00 0.00 67
20260505110146 12 327 11.3 17.7 0.00 0.00 0.00 66
20260505102146 12 333 12.9 20.9 0.00 0.00 0.00 69
20260505102046 12 334 12.9 20.9 0.00 0.00 0.00 69
20260505101946 12 334 12.9 20.9 0.00 0.00 0.00 70
20260505101846 12 337 12.9 20.9 0.00 0.00 0.00 70
20260505101746 12 339 11.3 20.9 0.00 0.00 0.00 71
20260505101707 12 338 11.3 20.9 0.00 0.00 0.00 71
20260505101546 12 337 9.7 17.7 0.00 0.00 0.00 69
20260505101446 12 337 9.7 17.7 0.00 0.00 0.00 69
20260505101346 12 337 9.7 17.7 0.00 0.00 0.00 69
20260505101246 12 335 9.7 17.7 0.00 0.00 0.00 69
20260505101146 12 334 9.7 17.7 0.00 0.00 0.00 70
20260505101046 12 335 9.7 17.7 0.00 0.00 0.00 70
20260505100947 12 337 9.7 17.7 0.00 0.00 0.00 71
20260505100846 12 339 9.7 17.7 0.00 0.00 0.00 71
20260505100746 12 341 9.7 17.7 0.00 0.00 0.00 70
20260505100646 12 344 11.3 17.7 0.00 0.00 0.00 70
20260505100607 12 348 12.9 19.3 0.00 0.00 0.00 70
20260505100446 12 352 12.9 19.3 0.00 0.00 0.00 69
20260505100346 12 355 12.9 19.3 0.00 0.00 0.00 69
20260505100246 12 360 12.9 19.3 0.00 0.00 0.00 69
20260505100146 12 360 14.5 19.3 0.00 0.00 0.00 68
20260505100047 12 360 14.5 19.3 0.00 0.00 0.00 67
20260505095946 12 360 14.5 20.9 0.00 0.00 0.00 68
20260505095846 12 1 14.5 20.9 0.00 0.00 0.00 70
20260505095746 12 360 14.5 20.9 0.00 0.00 0.00 69
20260505095646 12 359 14.5 20.9 0.00 0.00 0.00 69
20260505095546 12 356 14.5 20.9 0.00 0.00 0.00 69
20260505095446 12 355 14.5 20.9 0.00 0.00 0.00 70
20260505095346 12 352 14.5 20.9 0.00 0.00 0.00 70
20260505095308 12 351 14.5 20.9 0.00 0.00 0.00 70
20260505095146 12 351 14.5 20.9 0.00 0.00 0.00 70
20260505095046 12 352 14.5 20.9 0.00 0.00 0.00 70
20260505095007 12 351 14.5 19.3 0.00 0.00 0.00 70
20260505094846 12 349 14.5 19.3 0.00 0.00 0.00 70
20260505094746 12 347 14.5 20.9 0.00 0.00 0.00 70
20260505094646 12 346 14.5 20.9 0.00 0.00 0.00 69
20260505094546 12 346 14.5 20.9 0.00 0.00 0.00 70
20260505094506 12 347 14.5 20.9 0.00 0.00 0.00 70
20260505094407 12 350 14.5 20.9 0.00 0.00 0.00 69
20260505094246 12 352 14.5 20.9 0.00 0.00 0.00 70
20260505094146 12 353 14.5 20.9 0.00 0.00 0.00 72
20260505094107 12 355 14.5 20.9 0.00 0.00 0.00 72
20260505093946 12 359 14.5 20.9 0.00 0.00 0.00 72
20260505093846 12 358 14.5 20.9 0.00 0.00 0.00 73
20260505093746 12 359 14.5 20.9 0.00 0.00 0.00 73
20260505093646 12 360 14.5 20.9 0.00 0.00 0.00 71
20260505093546 12 3 16.1 20.9 0.00 0.00 0.00 71
20260505093447 12 359 16.1 20.9 0.00 0.00 0.00 71
20260505093346 12 355 16.1 22.5 0.00 0.00 0.00 72
20260505093307 12 353 16.1 22.5 0.00 0.00 0.00 72
20260505093146 12 350 16.1 22.5 0.00 0.00 0.00 72
20260505093046 12 347 16.1 22.5 0.00 0.00 0.00 71
20260505093007 12 344 16.1 22.5 0.00 0.00 0.00 71
20260505092846 12 344 14.5 22.5 0.00 0.00 0.00 72
20260505092746 12 344 14.5 22.5 0.00 0.00 0.00 72
20260505092645 12 343 14.5 22.5 0.00 0.00 0.00 73
20260505092546 12 342 14.5 22.5 0.00 0.00 0.00 72
20260505092446 12 344 14.5 22.5 0.00 0.00 0.00 73
20260505092346 12 346 12.9 22.5 0.00 0.00 0.00 75
20260505092246 12 346 12.9 22.5 0.00 0.00 0.00 75
20260505092146 12 346 12.9 22.5 0.00 0.00 0.00 75
20260505092107 12 349 12.9 22.5 0.00 0.00 0.00 75
20260505091946 12 351 11.3 20.9 0.00 0.00 0.00 75
20260505091846 12 348 11.3 20.9 0.00 0.00 0.00 73
20260505091746 12 349 11.3 20.9 0.00 0.00 0.00 73
20260505091708 12 349 11.3 20.9 0.00 0.00 0.00 73
20260505091546 12 349 11.3 20.9 0.00 0.00 0.00 77
20260505091446 12 348 11.3 16.1 0.00 0.00 0.00 77
20260505091346 12 348 11.3 17.7 0.00 0.00 0.00 76
20260505091307 12 348 11.3 17.7 0.00 0.00 0.00 76
20260505091146 11 349 11.3 17.7 0.00 0.00 0.00 76
20260505091107 11 349 12.9 17.7 0.00 0.00 0.00 76
20260505091007 11 349 12.9 19.3 0.00 0.00 0.00 75
20260505090845 11 349 12.9 19.3 0.00 0.00 0.00 75
20260505090807 11 348 12.9 19.3 0.00 0.00 0.00 75
20260505090646 11 345 12.9 19.3 0.00 0.00 0.00 74
20260505090546 11 344 12.9 19.3 0.00 0.00 0.00 75
20260505090446 11 344 14.5 19.3 0.00 0.00 0.00 75
20260505090346 11 345 14.5 19.3 0.00 0.00 0.00 75
20260505090246 11 345 14.5 19.3 0.00 0.00 0.00 76
20260505090146 11 345 14.5 19.3 0.00 0.00 0.00 77
20260505090046 11 342 12.9 19.3 0.00 0.00 0.00 76
20260505085946 11 341 14.5 19.3 0.00 0.00 0.00 75
20260505085846 11 341 14.5 19.3 0.00 0.00 0.00 75
20260505085746 11 345 12.9 19.3 0.00 0.00 0.00 75
20260505085646 11 350 12.9 19.3 0.00 0.00 0.00 75
20260505085607 11 351 12.9 19.3 0.00 0.00 0.00 75
20260505085447 11 352 12.9 19.3 0.00 0.00 0.00 76
20260505085346 11 350 12.9 19.3 0.00 0.00 0.00 77
20260505085247 11 350 12.9 17.7 0.00 0.00 0.00 77
20260505085145 11 353 12.9 16.1 0.00 0.00 0.00 77
20260505085046 11 357 12.9 16.1 0.00 0.00 0.00 77
20260505084946 11 360 12.9 17.7 0.00 0.00 0.00 76
20260505084846 11 3 12.9 17.7 0.00 0.00 0.00 76
20260505084746 11 1 12.9 17.7 0.00 0.00 0.00 76
20260505084707 11 359 12.9 17.7 0.00 0.00 0.00 76
20260505084546 11 356 12.9 17.7 0.00 0.00 0.00 77
20260505084446 11 354 12.9 17.7 0.00 0.00 0.00 78
20260505084346 11 353 12.9 17.7 0.00 0.00 0.00 77
20260505084245 11 353 12.9 17.7 0.00 0.00 0.00 77
20260505084146 11 352 12.9 17.7 0.00 0.00 0.00 78
20260505084107 11 351 12.9 17.7 0.00 0.00 0.00 78
20260505083946 11 346 12.9 17.7 0.00 0.00 0.00 77
20260505083846 11 343 12.9 17.7 0.00 0.00 0.00 77
20260505083746 11 341 12.9 17.7 0.00 0.00 0.00 77
20260505083707 11 339 12.9 19.3 0.00 0.00 0.00 77
20260505083546 11 340 12.9 19.3 0.00 0.00 0.00 77
20260505083447 11 340 12.9 19.3 0.00 0.00 0.00 78
20260505083346 11 342 12.9 19.3 0.00 0.00 0.00 79
20260505083246 11 344 12.9 19.3 0.00 0.00 0.00 78
20260505083145 11 343 12.9 19.3 0.00 0.00 0.00 78
20260505083107 11 342 12.9 19.3 0.00 0.00 0.00 78
20260505082946 11 344 12.9 19.3 0.00 0.00 0.00 79
20260505082846 11 347 12.9 19.3 0.00 0.00 0.00 79
20260505082746 11 350 12.9 19.3 0.00 0.00 0.00 79
20260505082646 11 350 12.9 17.7 0.00 0.00 0.00 79
20260505082546 11 349 12.9 17.7 0.00 0.00 0.00 79
20260505082446 11 348 12.9 17.7 0.00 0.00 0.00 78
20260505082346 11 346 12.9 17.7 0.00 0.00 0.00 79
20260505082245 11 343 12.9 19.3 0.00 0.00 0.00 80
20260505082146 11 342 12.9 19.3 0.00 0.00 0.00 81
20260505082046 10 342 12.9 19.3 0.00 0.00 0.00 81
20260505081946 10 341 12.9 19.3 0.00 0.00 0.00 80
20260505081845 10 341 12.9 19.3 0.00 0.00 0.00 80
20260505081746 10 340 14.5 19.3 0.00 0.00 0.00 80
20260505081646 10 339 14.5 19.3 0.00 0.00 0.00 80
20260505081607 10 338 14.5 19.3 0.00 0.00 0.00 80
20260505081446 10 337 14.5 19.3 0.00 0.00 0.00 80
20260505081407 10 336 12.9 19.3 0.00 0.00 0.00 80
20260505081247 10 335 12.9 17.7 0.00 0.00 0.00 80
20260505081146 10 334 12.9 17.7 0.00 0.00 0.00 81
20260505081046 10 333 12.9 19.3 0.00 0.00 0.00 81
20260505080946 10 331 12.9 19.3 0.00 0.00 0.00 81
20260505080846 10 329 14.5 19.3 0.00 0.00 0.00 82
20260505080746 10 326 12.9 19.3 0.00 0.00 0.00 81
20260505080707 10 326 14.5 19.3 0.00 0.00 0.00 81
20260505080546 10 326 14.5 19.3 0.00 0.00 0.00 82
20260505080446 10 328 14.5 19.3 0.00 0.00 0.00 82
20260505080407 10 329 14.5 19.3 0.00 0.00 0.00 82
20260505080246 10 329 14.5 19.3 0.00 0.00 0.00 82
20260505080147 10 331 14.5 19.3 0.00 0.00 0.00 82
20260505080109 10 332 14.5 19.3 0.00 0.00 0.00 82
20260505075947 10 334 14.5 19.3 0.00 0.00 0.00 82
20260505075846 10 335 14.5 19.3 0.00 0.00 0.00 82
20260505075745 10 337 14.5 19.3 0.00 0.00 0.00 83
20260505075646 10 337 14.5 19.3 0.00 0.00 0.00 83
20260505075607 10 338 12.9 19.3 0.00 0.00 0.00 83
20260505075446 10 339 12.9 17.7 0.00 0.00 0.00 83
20260505075346 10 341 12.9 17.7 0.00 0.00 0.00 83
20260505075246 10 341 14.5 19.3 0.00 0.00 0.00 83
20260505075146 10 342 14.5 19.3 0.00 0.00 0.00 83
20260505075046 10 342 14.5 19.3 0.00 0.00 0.00 83
20260505074946 10 341 14.5 19.3 0.00 0.00 0.00 84
20260505074846 10 339 14.5 19.3 0.00 0.00 0.00 84
20260505074807 10 339 14.5 19.3 0.00 0.00 0.00 84
20260505074646 10 338 14.5 19.3 0.00 0.00 0.00 84
20260505074546 9 339 16.1 19.3 0.00 0.00 0.00 84
20260505074445 9 339 14.5 19.3 0.00 0.00 0.00 84
20260505074346 9 339 14.5 19.3 0.00 0.00 0.00 84
20260505074246 9 339 14.5 19.3 0.00 0.00 0.00 85
20260505074146 9 337 14.5 19.3 0.00 0.00 0.00 85
20260505074046 9 335 12.9 19.3 0.00 0.00 0.00 84
20260505074007 9 334 12.9 19.3 0.00 0.00 0.00 84
20260505073846 9 334 12.9 19.3 0.00 0.00 0.00 86
20260505073746 9 334 12.9 19.3 0.00 0.00 0.00 85
20260505073646 9 333 12.9 19.3 0.00 0.00 0.00 86
20260505073545 9 332 12.9 19.3 0.00 0.00 0.00 87
20260505073447 9 330 12.9 16.1 0.00 0.00 0.00 87
20260505073346 9 329 12.9 16.1 0.00 0.00 0.00 87
20260505073246 9 328 12.9 16.1 0.00 0.00 0.00 87
20260505073146 8 328 12.9 16.1 0.00 0.00 0.00 86
20260505073046 8 327 12.9 16.1 0.00 0.00 0.00 87
20260505072946 8 327 12.9 16.1 0.00 0.00 0.00 87
20260505072846 8 328 12.9 16.1 0.00 0.00 0.00 87
20260505072747 8 329 12.9 16.1 0.00 0.00 0.00 87
20260505072647 8 331 12.9 16.1 0.00 0.00 0.00 88
20260505072546 8 330 12.9 16.1 0.00 0.00 0.00 88
20260505072446 8 331 12.9 16.1 0.00 0.00 0.00 88
20260505072346 8 331 12.9 16.1 0.00 0.00 0.00 88
20260505072307 8 332 12.9 16.1 0.00 0.00 0.00 88
20260505072146 8 334 12.9 17.7 0.00 0.00 0.00 88
20260505072107 8 334 12.9 17.7 0.00 0.00 0.00 88
20260505071946 8 337 12.9 17.7 0.00 0.00 0.00 88
20260505071846 8 337 12.9 17.7 0.00 0.00 0.00 88
20260505071746 8 336 12.9 17.7 0.00 0.00 0.00 88
20260505071646 8 335 12.9 17.7 0.00 0.00 0.00 88
20260505071546 8 334 12.9 17.7 0.00 0.00 0.00 88
20260505071446 8 334 12.9 17.7 0.00 0.00 0.00 88
20260505071407 8 334 14.5 17.7 0.00 0.00 0.00 88
20260505071246 8 333 12.9 17.7 0.00 0.00 0.00 89
20260505071146 8 332 12.9 17.7 0.00 0.00 0.00 89
20260505071046 8 331 12.9 17.7 0.00 0.00 0.00 88
20260505070946 8 331 12.9 17.7 0.00 0.00 0.00 88
20260505070846 8 330 14.5 19.3 0.00 0.00 0.00 88
20260505070746 8 331 14.5 19.3 0.00 0.00 0.00 89
20260505070646 8 331 12.9 19.3 0.00 0.00 0.00 89
20260505070607 8 331 12.9 19.3 0.00 0.00 0.00 89
20260505070507 8 333 14.5 19.3 0.00 0.00 0.00 89